Time,TemperatureF,DewpointF,PressureIn,WindDirection,WindDirectionDegrees,WindSpeedMPH,WindSpeedGustMPH,Humidity,HourlyPrecipIn,Conditions,Clouds,dailyrainin,SolarRadiationWatts/m^2,SoftwareType,DateUTC
2013-01-16 00:00:00,21.0,17.0,-100.00,SE,135,0.0,-999.0,81,-99.99,,,-99.99,0.000000,,2013-01-16 05:00:00,
2013-01-16 00:42:00,21.0,17.0,-100.00,SE,135,0.0,-999.0,81,-99.99,,,-99.99,0.000000,,2013-01-16 05:42:00,
2013-01-16 00:53:00,21.0,17.0,-100.00,SE,135,0.0,-999.0,81,-99.99,,,-99.99,0.000000,,2013-01-16 05:53:00,
2013-01-16 03:00:00,18.0,16.0,-100.00,SE,135,0.0,-999.0,90,-99.99,,,-99.99,0.000000,,2013-01-16 08:00:00,
2013-01-16 03:42:00,18.0,16.0,-100.00,SE,135,0.0,-999.0,90,-99.99,,,-99.99,0.000000,,2013-01-16 08:42:00,
2013-01-16 03:53:00,18.0,16.0,-100.00,SE,135,0.0,-999.0,90,-99.99,,,-99.99,0.000000,,2013-01-16 08:53:00,
2013-01-16 06:00:00,19.0,17.0,-100.00,SE,135,0.0,-999.0,92,-99.99,,,-99.99,0.000000,,2013-01-16 11:00:00,
2013-01-16 06:43:00,19.0,17.0,-100.00,SE,135,0.0,-999.0,92,-99.99,,,-99.99,0.000000,,2013-01-16 11:43:00,
2013-01-16 06:53:00,19.0,17.0,-100.00,SE,135,0.0,-999.0,92,-99.99,,,-99.99,0.000000,,2013-01-16 11:53:00,
2013-01-16 09:00:00,19.0,16.0,-100.00,SE,135,0.0,-999.0,87,-99.99,,,-99.99,13.920000,,2013-01-16 14:00:00,
2013-01-16 09:43:00,19.0,16.0,-100.00,SE,135,0.0,-999.0,87,-99.99,,,-99.99,13.920000,,2013-01-16 14:43:00,
2013-01-16 09:53:00,19.0,16.0,-100.00,SE,135,0.0,-999.0,87,-99.99,,,-99.99,13.920000,,2013-01-16 14:53:00,
2013-01-16 12:00:00,28.0,16.0,-100.00,SW,225,1.0,-999.0,59,-99.99,,,-99.99,314.359985,,2013-01-16 17:00:00,
2013-01-16 12:44:00,28.0,16.0,-100.00,SW,225,1.0,-999.0,59,-99.99,,,-99.99,314.359985,,2013-01-16 17:44:00,
2013-01-16 12:53:00,28.0,16.0,-100.00,SW,225,1.0,-999.0,59,-99.99,,,-99.99,314.359985,,2013-01-16 17:53:00,
2013-01-16 15:00:00,35.0,9.0,-100.00,SW,225,11.0,-999.0,34,-99.99,,,-99.99,320.160004,,2013-01-16 20:00:00,
2013-01-16 15:43:00,35.0,9.0,-100.00,SW,225,11.0,-999.0,34,-99.99,,,-99.99,320.160004,,2013-01-16 20:43:00,
2013-01-16 15:53:00,35.0,9.0,-100.00,SW,225,11.0,-999.0,34,-99.99,,,-99.99,320.160004,,2013-01-16 20:53:00,
2013-01-16 18:00:00,33.0,12.0,-100.00,SW,225,9.0,-999.0,41,-99.99,,,-99.99,1.160000,,2013-01-16 23:00:00,
2013-01-16 18:43:00,33.0,12.0,-100.00,SW,225,9.0,-999.0,41,-99.99,,,-99.99,1.160000,,2013-01-16 23:43:00,
2013-01-16 18:53:00,33.0,12.0,-100.00,SW,225,9.0,-999.0,41,-99.99,,,-99.99,1.160000,,2013-01-16 23:53:00,
2013-01-16 21:00:00,32.0,18.0,-100.00,WSW,247,9.0,-999.0,56,-99.99,,,-99.99,0.000000,,2013-01-17 02:00:00,